Year,Month,Day,Hour,Minute,Value (Times are PST for insolation in W/m^2)
2007,07,01,00,00,0.00
2007,07,01,00,01,0.00
2007,07,01,00,02,0.00
2007,07,01,00,03,0.00
2007,07,01,00,04,0.00
2007,07,01,00,05,0.00
2007,07,01,00,06,0.00
2007,07,01,00,07,0.00
2007,07,01,00,08,0.00
2007,07,01,00,09,0.00
2007,07,01,00,10,0.00
2007,07,01,00,11,0.00
2007,07,01,00,12,0.00
2007,07,01,00,13,0.00
2007,07,01,00,14,0.00
2007,07,01,00,15,0.00
2007,07,01,00,16,0.00
2007,07,01,00,17,0.00
2007,07,01,00,18,0.00
2007,07,01,00,19,0.00
2007,07,01,00,20,0.00
2007,07,01,00,21,0.00
2007,07,01,00,22,0.00
2007,07,01,00,23,0.00
2007,07,01,00,24,0.00
2007,07,01,00,25,0.00
2007,07,01,00,26,0.00
2007,07,01,00,27,0.00
2007,07,01,00,28,0.00
2007,07,01,00,29,0.00
2007,07,01,00,30,0.00
2007,07,01,00,31,0.00
2007,07,01,00,32,0.00
2007,07,01,00,33,0.00
2007,07,01,00,34,0.00
2007,07,01,00,35,0.00
2007,07,01,00,36,0.00
2007,07,01,00,37,0.00
2007,07,01,00,38,0.00
2007,07,01,00,39,0.00
2007,07,01,00,40,0.00
2007,07,01,00,41,0.00
2007,07,01,00,42,0.00
2007,07,01,00,43,0.00
2007,07,01,00,44,0.00
2007,07,01,00,45,0.00
2007,07,01,00,46,0.00
2007,07,01,00,47,0.00
2007,07,01,00,48,0.00
2007,07,01,00,49,0.00
2007,07,01,00,50,0.00
2007,07,01,00,51,0.00
2007,07,01,00,52,0.00
2007,07,01,00,53,0.00
2007,07,01,00,54,0.00
2007,07,01,00,55,0.00
2007,07,01,00,56,0.00
2007,07,01,00,57,0.00
2007,07,01,00,58,0.00
2007,07,01,00,59,0.00
2007,07,01,01,00,0.00
2007,07,01,01,01,0.00
2007,07,01,01,02,0.00
2007,07,01,01,03,0.00
2007,07,01,01,04,0.00
2007,07,01,01,05,0.00
2007,07,01,01,06,0.00
2007,07,01,01,07,0.00
2007,07,01,01,08,0.00
2007,07,01,01,09,0.00
2007,07,01,01,10,0.00
2007,07,01,01,11,0.00
2007,07,01,01,12,0.00
2007,07,01,01,13,0.00
2007,07,01,01,14,0.00
2007,07,01,01,15,0.00
2007,07,01,01,16,0.00
2007,07,01,01,17,0.00
2007,07,01,01,18,0.00
2007,07,01,01,19,0.00
2007,07,01,01,20,0.00
2007,07,01,01,21,0.00
2007,07,01,01,22,0.00
2007,07,01,01,23,0.00
2007,07,01,01,24,0.00
2007,07,01,01,25,0.00
2007,07,01,01,26,0.00
2007,07,01,01,27,0.00
2007,07,01,01,28,0.00
2007,07,01,01,29,0.00
2007,07,01,01,30,0.00
2007,07,01,01,31,0.00
2007,07,01,01,32,0.00
2007,07,01,01,33,0.00
2007,07,01,01,34,0.00
2007,07,01,01,35,0.00
2007,07,01,01,36,0.00
2007,07,01,01,37,0.00
2007,07,01,01,38,0.00
2007,07,01,01,39,0.00
2007,07,01,01,40,0.00
2007,07,01,01,41,0.00
2007,07,01,01,42,0.00
2007,07,01,01,43,0.00
2007,07,01,01,44,0.00
2007,07,01,01,45,0.00
2007,07,01,01,46,0.00
2007,07,01,01,47,0.00
2007,07,01,01,48,0.00
2007,07,01,01,49,0.00
2007,07,01,01,50,0.00
2007,07,01,01,51,0.00
2007,07,01,01,52,0.00
2007,07,01,01,53,0.00
2007,07,01,01,54,0.00
2007,07,01,01,55,0.00
2007,07,01,01,56,0.00
2007,07,01,01,57,0.00
2007,07,01,01,58,0.00
2007,07,01,01,59,0.00
2007,07,01,02,00,0.00
2007,07,01,02,01,0.00
2007,07,01,02,02,0.00
2007,07,01,02,03,0.00
2007,07,01,02,04,0.00
2007,07,01,02,05,0.00
2007,07,01,02,06,0.00
2007,07,01,02,07,0.00
2007,07,01,02,08,0.00
2007,07,01,02,09,0.00
2007,07,01,02,10,0.00
2007,07,01,02,11,0.00
2007,07,01,02,12,0.00
2007,07,01,02,13,0.00
2007,07,01,02,14,0.00
2007,07,01,02,15,0.00
2007,07,01,02,16,0.00
2007,07,01,02,17,0.00
2007,07,01,02,18,0.00
2007,07,01,02,19,0.00
2007,07,01,02,20,0.00
2007,07,01,02,21,0.00
2007,07,01,02,22,0.00
2007,07,01,02,23,0.00
2007,07,01,02,24,0.00
2007,07,01,02,25,0.00
2007,07,01,02,26,0.00
2007,07,01,02,27,0.00
2007,07,01,02,28,0.00
2007,07,01,02,29,0.00
2007,07,01,02,30,0.00
2007,07,01,02,31,0.00
2007,07,01,02,32,0.00
2007,07,01,02,33,0.00
2007,07,01,02,34,0.00
2007,07,01,02,35,0.00
2007,07,01,02,36,0.00
2007,07,01,02,37,0.00
2007,07,01,02,38,0.00
2007,07,01,02,39,0.00
2007,07,01,02,40,0.00
2007,07,01,02,41,0.00
2007,07,01,02,42,0.00
2007,07,01,02,43,0.00
2007,07,01,02,44,0.00
2007,07,01,02,45,0.00
2007,07,01,02,46,0.00
2007,07,01,02,47,0.00
2007,07,01,02,48,0.00
2007,07,01,02,49,0.00
2007,07,01,02,50,0.00
2007,07,01,02,51,0.00
2007,07,01,02,52,0.00
2007,07,01,02,53,0.00
2007,07,01,02,54,0.00
2007,07,01,02,55,0.00
2007,07,01,02,56,0.00
2007,07,01,02,57,0.00
2007,07,01,02,58,0.00
2007,07,01,02,59,0.00
2007,07,01,03,00,0.00
2007,07,01,03,01,0.00
2007,07,01,03,02,0.00
2007,07,01,03,03,0.00
2007,07,01,03,04,0.00
2007,07,01,03,05,0.00
2007,07,01,03,06,0.00
2007,07,01,03,07,0.00
2007,07,01,03,08,0.00
2007,07,01,03,09,0.00
2007,07,01,03,10,0.00
2007,07,01,03,11,0.00
2007,07,01,03,12,0.00
2007,07,01,03,13,0.00
2007,07,01,03,14,0.00
2007,07,01,03,15,0.00
2007,07,01,03,16,0.00
2007,07,01,03,17,0.00
2007,07,01,03,18,0.00
2007,07,01,03,19,0.00
2007,07,01,03,20,0.00
2007,07,01,03,21,0.00
2007,07,01,03,22,0.00
2007,07,01,03,23,0.00
2007,07,01,03,24,0.00
2007,07,01,03,25,0.00
2007,07,01,03,26,0.00
2007,07,01,03,27,0.00
2007,07,01,03,28,0.00
2007,07,01,03,29,0.00
2007,07,01,03,30,0.00
2007,07,01,03,31,0.00
2007,07,01,03,32,0.00
2007,07,01,03,33,0.00
2007,07,01,03,34,0.00
2007,07,01,03,35,0.00
2007,07,01,03,36,0.00
2007,07,01,03,37,0.00
2007,07,01,03,38,0.00
2007,07,01,03,39,0.00
2007,07,01,03,40,0.00
2007,07,01,03,41,0.00
2007,07,01,03,42,0.00
2007,07,01,03,43,0.00
2007,07,01,03,44,0.00
2007,07,01,03,45,0.00
2007,07,01,03,46,0.00
2007,07,01,03,47,0.00
2007,07,01,03,48,0.00
2007,07,01,03,49,0.00
2007,07,01,03,50,0.00
2007,07,01,03,51,0.00
2007,07,01,03,52,0.00
2007,07,01,03,53,0.00
2007,07,01,03,54,0.00
2007,07,01,03,55,0.00
2007,07,01,03,56,0.00
2007,07,01,03,57,0.00
2007,07,01,03,58,0.00
2007,07,01,03,59,0.00
2007,07,01,04,00,0.00
2007,07,01,04,01,0.00
2007,07,01,04,02,0.00
2007,07,01,04,03,0.00
2007,07,01,04,04,0.00
2007,07,01,04,05,0.00
2007,07,01,04,06,0.00
2007,07,01,04,07,0.00
2007,07,01,04,08,0.00
2007,07,01,04,09,0.00
2007,07,01,04,10,0.00
2007,07,01,04,11,0.00
2007,07,01,04,12,0.00
2007,07,01,04,13,0.00
2007,07,01,04,14,0.00
2007,07,01,04,15,0.00
2007,07,01,04,16,0.00
2007,07,01,04,17,0.00
2007,07,01,04,18,0.00
2007,07,01,04,19,0.00
2007,07,01,04,20,0.00
2007,07,01,04,21,0.00
2007,07,01,04,22,0.00
2007,07,01,04,23,0.00
2007,07,01,04,24,0.00
2007,07,01,04,25,0.00
2007,07,01,04,26,0.00
2007,07,01,04,27,0.00
2007,07,01,04,28,0.00
2007,07,01,04,29,0.00
2007,07,01,04,30,0.00
2007,07,01,04,31,0.00
2007,07,01,04,32,0.00
2007,07,01,04,33,0.00
2007,07,01,04,34,0.00
2007,07,01,04,35,0.00
2007,07,01,04,36,0.00
2007,07,01,04,37,0.00
2007,07,01,04,38,0.00
2007,07,01,04,39,0.00
2007,07,01,04,40,0.00
2007,07,01,04,41,0.00
2007,07,01,04,42,0.00
2007,07,01,04,43,0.00
2007,07,01,04,44,0.00
2007,07,01,04,45,0.00
2007,07,01,04,46,0.00
2007,07,01,04,47,0.00
2007,07,01,04,48,0.00
2007,07,01,04,49,0.00
2007,07,01,04,50,0.00
2007,07,01,04,51,0.00
2007,07,01,04,52,0.00
2007,07,01,04,53,0.00
2007,07,01,04,54,0.00
2007,07,01,04,55,0.00
2007,07,01,04,56,0.00
2007,07,01,04,57,0.00
2007,07,01,04,58,0.00
2007,07,01,04,59,0.00
2007,07,01,05,00,0.00
2007,07,01,05,01,0.00
2007,07,01,05,02,0.00
2007,07,01,05,03,0.00
2007,07,01,05,04,0.00
2007,07,01,05,05,0.00
2007,07,01,05,06,0.00
2007,07,01,05,07,0.00
2007,07,01,05,08,0.00
2007,07,01,05,09,0.00
2007,07,01,05,10,0.00
2007,07,01,05,11,0.00
2007,07,01,05,12,0.00
2007,07,01,05,13,0.00
2007,07,01,05,14,0.00
2007,07,01,05,15,0.00
2007,07,01,05,16,0.00
2007,07,01,05,17,0.00
2007,07,01,05,18,0.00
2007,07,01,05,19,0.00
2007,07,01,05,20,0.00
2007,07,01,05,21,0.00
2007,07,01,05,22,0.00
2007,07,01,05,23,0.00
2007,07,01,05,24,0.00
2007,07,01,05,25,0.00
2007,07,01,05,26,0.00
2007,07,01,05,27,1.90
2007,07,01,05,28,5.00
2007,07,01,05,29,5.00
2007,07,01,05,30,5.00
2007,07,01,05,31,5.00
2007,07,01,05,32,6.20
2007,07,01,05,33,7.00
2007,07,01,05,34,7.00
2007,07,01,05,35,7.00
2007,07,01,05,36,7.00
2007,07,01,05,37,8.40
2007,07,01,05,38,9.00
2007,07,01,05,39,9.00
2007,07,01,05,40,9.00
2007,07,01,05,41,9.00
2007,07,01,05,42,9.00
2007,07,01,05,43,9.00
2007,07,01,05,44,11.00
2007,07,01,05,45,12.10
2007,07,01,05,46,14.00
2007,07,01,05,47,14.40
2007,07,01,05,48,16.50
2007,07,01,05,49,18.30
2007,07,01,05,50,19.50
2007,07,01,05,51,21.60
2007,07,01,05,52,24.30
2007,07,01,05,53,26.00
2007,07,01,05,54,27.10
2007,07,01,05,55,29.10
2007,07,01,05,56,30.00
2007,07,01,05,57,30.00
2007,07,01,05,58,28.80
2007,07,01,05,59,28.00
2007,07,01,06,00,28.00
2007,07,01,06,01,28.00
2007,07,01,06,02,28.00
2007,07,01,06,03,28.00
2007,07,01,06,04,28.00
2007,07,01,06,05,28.00
2007,07,01,06,06,29.90
2007,07,01,06,07,32.10
2007,07,01,06,08,33.10
2007,07,01,06,09,35.20
2007,07,01,06,10,37.60
2007,07,01,06,11,40.50
2007,07,01,06,12,43.20
2007,07,01,06,13,46.90
2007,07,01,06,14,49.00
2007,07,01,06,15,50.80
2007,07,01,06,16,53.00
2007,07,01,06,17,53.00
2007,07,01,06,18,50.80
2007,07,01,06,19,52.50
2007,07,01,06,20,45.00
2007,07,01,06,21,39.20
2007,07,01,06,22,34.10
2007,07,01,06,23,30.60
2007,07,01,06,24,28.60
2007,07,01,06,25,26.50
2007,07,01,06,26,25.00
2007,07,01,06,27,25.00
2007,07,01,06,28,23.00
2007,07,01,06,29,23.00
2007,07,01,06,30,23.00
2007,07,01,06,31,25.00
2007,07,01,06,32,25.10
2007,07,01,06,33,26.00
2007,07,01,06,34,26.40
2007,07,01,06,35,28.00
2007,07,01,06,36,28.00
2007,07,01,06,37,28.00
2007,07,01,06,38,28.00
2007,07,01,06,39,28.00
2007,07,01,06,40,28.00
2007,07,01,06,41,29.00
2007,07,01,06,42,31.40
2007,07,01,06,43,34.10
2007,07,01,06,44,36.50
2007,07,01,06,45,39.40
2007,07,01,06,46,41.80
2007,07,01,06,47,45.50
2007,07,01,06,48,48.20
2007,07,01,06,49,52.20
2007,07,01,06,50,53.00
2007,07,01,06,51,74.00
2007,07,01,06,52,65.00
2007,07,01,06,53,62.80
2007,07,01,06,54,60.00
2007,07,01,06,55,60.20
2007,07,01,06,56,62.20
2007,07,01,06,57,64.00
2007,07,01,06,58,67.90
2007,07,01,06,59,71.50
2007,07,01,07,00,75.10
2007,07,01,07,01,78.80
2007,07,01,07,02,82.50
2007,07,01,07,03,85.80
2007,07,01,07,04,91.20
2007,07,01,07,05,99.40
2007,07,01,07,06,105.80
2007,07,01,07,07,117.20
2007,07,01,07,08,129.80
2007,07,01,07,09,162.60
2007,07,01,07,10,170.00
2007,07,01,07,11,171.70
2007,07,01,07,12,151.00
2007,07,01,07,13,140.80
2007,07,01,07,14,132.00
2007,07,01,07,15,125.00
2007,07,01,07,16,118.00
2007,07,01,07,17,112.60
2007,07,01,07,18,106.20
2007,07,01,07,19,99.50
2007,07,01,07,20,95.80
2007,07,01,07,21,90.20
2007,07,01,07,22,86.80
2007,07,01,07,23,82.80
2007,07,01,07,24,79.20
2007,07,01,07,25,76.60
2007,07,01,07,26,74.20
2007,07,01,07,27,71.10
2007,07,01,07,28,69.50
2007,07,01,07,29,66.20
2007,07,01,07,30,63.50
2007,07,01,07,31,63.00
2007,07,01,07,32,63.00
2007,07,01,07,33,63.00
2007,07,01,07,34,63.00
2007,07,01,07,35,65.00
2007,07,01,07,36,69.00
2007,07,01,07,37,71.70
2007,07,01,07,38,77.00
2007,07,01,07,39,84.00
2007,07,01,07,40,90.30
2007,07,01,07,41,95.50
2007,07,01,07,42,100.40
2007,07,01,07,43,102.00
2007,07,01,07,44,101.50
2007,07,01,07,45,99.20
2007,07,01,07,46,97.60
2007,07,01,07,47,97.40
2007,07,01,07,48,100.30
2007,07,01,07,49,105.30
2007,07,01,07,50,109.00
2007,07,01,07,51,112.90
2007,07,01,07,52,115.40
2007,07,01,07,53,117.50
2007,07,01,07,54,119.60
2007,07,01,07,55,124.10
2007,07,01,07,56,128.60
2007,07,01,07,57,133.80
2007,07,01,07,58,135.00
2007,07,01,07,59,135.00
2007,07,01,08,00,135.00
2007,07,01,08,01,128.00
2007,07,01,08,02,125.20
2007,07,01,08,03,127.20
2007,07,01,08,04,130.60
2007,07,01,08,05,135.30
2007,07,01,08,06,138.00
2007,07,01,08,07,142.50
2007,07,01,08,08,147.60
2007,07,01,08,09,151.80
2007,07,01,08,10,153.90
2007,07,01,08,11,155.00
2007,07,01,08,12,155.60
2007,07,01,08,13,158.50
2007,07,01,08,14,161.90
2007,07,01,08,15,167.10
2007,07,01,08,16,170.80
2007,07,01,08,17,175.20
2007,07,01,08,18,178.60
2007,07,01,08,19,183.30
2007,07,01,08,20,191.10
2007,07,01,08,21,206.00
2007,07,01,08,22,214.50
2007,07,01,08,23,224.10
2007,07,01,08,24,236.00
2007,07,01,08,25,242.60
2007,07,01,08,26,246.00
2007,07,01,08,27,246.50
2007,07,01,08,28,250.10
2007,07,01,08,29,254.50
2007,07,01,08,30,258.10
2007,07,01,08,31,243.30
2007,07,01,08,32,246.60
2007,07,01,08,33,256.70
2007,07,01,08,34,266.70
2007,07,01,08,35,277.80
2007,07,01,08,36,275.50
2007,07,01,08,37,285.40
2007,07,01,08,38,284.10
2007,07,01,08,39,303.80
2007,07,01,08,40,313.00
2007,07,01,08,41,313.00
2007,07,01,08,42,302.50
2007,07,01,08,43,275.70
2007,07,01,08,44,287.00
2007,07,01,08,45,292.00
2007,07,01,08,46,288.40
2007,07,01,08,47,293.40
2007,07,01,08,48,343.00
2007,07,01,08,49,277.50
2007,07,01,08,50,245.90
2007,07,01,08,51,226.60
2007,07,01,08,52,228.00
2007,07,01,08,53,239.20
2007,07,01,08,54,246.00
2007,07,01,08,55,288.80
2007,07,01,08,56,360.00
2007,07,01,08,57,360.00
2007,07,01,08,58,351.60
2007,07,01,08,59,326.50
2007,07,01,09,00,304.00
2007,07,01,09,01,306.80
2007,07,01,09,02,324.80
2007,07,01,09,03,336.50
2007,07,01,09,04,356.40
2007,07,01,09,05,338.90
2007,07,01,09,06,307.90
2007,07,01,09,07,285.00
2007,07,01,09,08,262.00
2007,07,01,09,09,244.00
2007,07,01,09,10,230.70
2007,07,01,09,11,213.00
2007,07,01,09,12,199.60
2007,07,01,09,13,192.90
2007,07,01,09,14,192.90
2007,07,01,09,15,199.50
2007,07,01,09,16,213.90
2007,07,01,09,17,244.60
2007,07,01,09,18,296.20
2007,07,01,09,19,325.00
2007,07,01,09,20,438.50
2007,07,01,09,21,531.30
2007,07,01,09,22,506.00
2007,07,01,09,23,506.00
2007,07,01,09,24,506.00
2007,07,01,09,25,602.00
2007,07,01,09,26,677.40
2007,07,01,09,27,680.00
2007,07,01,09,28,680.00
2007,07,01,09,29,680.00
2007,07,01,09,30,671.00
2007,07,01,09,31,675.00
2007,07,01,09,32,664.20
2007,07,01,09,33,677.00
2007,07,01,09,34,661.00
2007,07,01,09,35,664.20
2007,07,01,09,36,668.40
2007,07,01,09,37,673.40
2007,07,01,09,38,687.80
2007,07,01,09,39,704.40
2007,07,01,09,40,714.00
2007,07,01,09,41,711.80
2007,07,01,09,42,711.90
2007,07,01,09,43,721.50
2007,07,01,09,44,732.80
2007,07,01,09,45,745.30
2007,07,01,09,46,751.00
2007,07,01,09,47,751.00
2007,07,01,09,48,751.00
2007,07,01,09,49,751.00
2007,07,01,09,50,751.00
2007,07,01,09,51,606.80
2007,07,01,09,52,545.00
2007,07,01,09,53,473.00
2007,07,01,09,54,387.00
2007,07,01,09,55,338.00
2007,07,01,09,56,380.00
2007,07,01,09,57,454.00
2007,07,01,09,58,520.30
2007,07,01,09,59,540.00
2007,07,01,10,00,559.50
2007,07,01,10,01,696.00
2007,07,01,10,02,696.00
2007,07,01,10,03,696.00
2007,07,01,10,04,696.00
2007,07,01,10,05,696.00
2007,07,01,10,06,773.50
2007,07,01,10,07,815.50
2007,07,01,10,08,738.20
2007,07,01,10,09,701.00
2007,07,01,10,10,701.00
2007,07,01,10,11,701.00
2007,07,01,10,12,672.20
2007,07,01,10,13,666.00
2007,07,01,10,14,521.60
2007,07,01,10,15,512.00
2007,07,01,10,16,316.00
2007,07,01,10,17,385.00
2007,07,01,10,18,429.00
2007,07,01,10,19,441.00
2007,07,01,10,20,536.00
2007,07,01,10,21,530.00
2007,07,01,10,22,485.00
2007,07,01,10,23,545.20
2007,07,01,10,24,820.40
2007,07,01,10,25,796.50
2007,07,01,10,26,777.40
2007,07,01,10,27,772.60
2007,07,01,10,28,772.40
2007,07,01,10,29,773.90
2007,07,01,10,30,769.00
2007,07,01,10,31,768.60
2007,07,01,10,32,775.20
2007,07,01,10,33,785.20
2007,07,01,10,34,738.00
2007,07,01,10,35,743.80
2007,07,01,10,36,764.40
2007,07,01,10,37,804.80
2007,07,01,10,38,803.90
2007,07,01,10,39,803.00
2007,07,01,10,40,803.00
2007,07,01,10,41,772.00
2007,07,01,10,42,768.20
2007,07,01,10,43,781.20
2007,07,01,10,44,800.60
2007,07,01,10,45,809.10
2007,07,01,10,46,810.80
2007,07,01,10,47,810.50
2007,07,01,10,48,800.90
2007,07,01,10,49,794.90
2007,07,01,10,50,759.00
2007,07,01,10,51,745.40
2007,07,01,10,52,784.50
2007,07,01,10,53,795.50
2007,07,01,10,54,789.70
2007,07,01,10,55,789.10
2007,07,01,10,56,792.10
2007,07,01,10,57,795.30
2007,07,01,10,58,799.20
2007,07,01,10,59,790.40
2007,07,01,11,00,768.00
2007,07,01,11,01,751.80
2007,07,01,11,02,788.00
2007,07,01,11,03,759.00
2007,07,01,11,04,775.00
2007,07,01,11,05,816.00
2007,07,01,11,06,820.80
2007,07,01,11,07,815.60
2007,07,01,11,08,811.20
2007,07,01,11,09,796.40
2007,07,01,11,10,767.20
2007,07,01,11,11,799.40
2007,07,01,11,12,797.20
2007,07,01,11,13,789.60
2007,07,01,11,14,748.80
2007,07,01,11,15,689.60
2007,07,01,11,16,659.00
2007,07,01,11,17,700.60
2007,07,01,11,18,763.60
2007,07,01,11,19,759.30
2007,07,01,11,20,735.50
2007,07,01,11,21,704.20
2007,07,01,11,22,751.50
2007,07,01,11,23,806.10
2007,07,01,11,24,802.40
2007,07,01,11,25,802.00
2007,07,01,11,26,828.00
2007,07,01,11,27,830.00
2007,07,01,11,28,846.00
2007,07,01,11,29,828.00
2007,07,01,11,30,775.60
2007,07,01,11,31,783.50
2007,07,01,11,32,780.40
2007,07,01,11,33,779.50
2007,07,01,11,34,779.60
2007,07,01,11,35,793.10
2007,07,01,11,36,796.40
2007,07,01,11,37,816.60
2007,07,01,11,38,813.20
2007,07,01,11,39,817.40
2007,07,01,11,40,819.30
2007,07,01,11,41,829.10
2007,07,01,11,42,826.80
2007,07,01,11,43,823.50
2007,07,01,11,44,852.00
2007,07,01,11,45,877.50
2007,07,01,11,46,874.30
2007,07,01,11,47,876.80
2007,07,01,11,48,863.00
2007,07,01,11,49,875.80
2007,07,01,11,50,866.40
2007,07,01,11,51,863.00
2007,07,01,11,52,830.00
2007,07,01,11,53,872.60
2007,07,01,11,54,881.90
2007,07,01,11,55,864.30
2007,07,01,11,56,867.80
2007,07,01,11,57,854.50
2007,07,01,11,58,847.60
2007,07,01,11,59,859.40
2007,07,01,12,00,864.10
2007,07,01,12,01,872.50
2007,07,01,12,02,881.40
2007,07,01,12,03,872.20
2007,07,01,12,04,842.20
2007,07,01,12,05,824.10
2007,07,01,12,06,817.20
2007,07,01,12,07,816.80
2007,07,01,12,08,803.20
2007,07,01,12,09,787.80
2007,07,01,12,10,786.00
2007,07,01,12,11,788.40
2007,07,01,12,12,803.00
2007,07,01,12,13,803.00
2007,07,01,12,14,816.00
2007,07,01,12,15,798.00
2007,07,01,12,16,787.00
2007,07,01,12,17,804.60
2007,07,01,12,18,820.00
2007,07,01,12,19,811.50
2007,07,01,12,20,828.20
2007,07,01,12,21,840.60
2007,07,01,12,22,857.50
2007,07,01,12,23,861.10
2007,07,01,12,24,858.00
2007,07,01,12,25,843.10
2007,07,01,12,26,841.80
2007,07,01,12,27,872.90
2007,07,01,12,28,890.80
2007,07,01,12,29,902.00
2007,07,01,12,30,905.00
2007,07,01,12,31,906.80
2007,07,01,12,32,907.00
2007,07,01,12,33,857.10
2007,07,01,12,34,888.00
2007,07,01,12,35,909.00
2007,07,01,12,36,926.00
2007,07,01,12,37,930.00
2007,07,01,12,38,910.80
2007,07,01,12,39,937.30
2007,07,01,12,40,939.00
2007,07,01,12,41,894.60
2007,07,01,12,42,819.00
2007,07,01,12,43,819.00
2007,07,01,12,44,796.10
2007,07,01,12,45,758.00
2007,07,01,12,46,814.00
2007,07,01,12,47,885.20
2007,07,01,12,48,894.10
2007,07,01,12,49,906.40
2007,07,01,12,50,902.10
2007,07,01,12,51,895.10
2007,07,01,12,52,893.00
2007,07,01,12,53,897.10
2007,07,01,12,54,926.00
2007,07,01,12,55,925.60
2007,07,01,12,56,877.00
2007,07,01,12,57,898.00
2007,07,01,12,58,877.00
2007,07,01,12,59,958.00
2007,07,01,13,00,956.00
2007,07,01,13,01,902.00
2007,07,01,13,02,899.40
2007,07,01,13,03,864.20
2007,07,01,13,04,895.60
2007,07,01,13,05,911.00
2007,07,01,13,06,889.00
2007,07,01,13,07,799.20
2007,07,01,13,08,690.90
2007,07,01,13,09,596.60
2007,07,01,13,10,555.00
2007,07,01,13,11,661.50
2007,07,01,13,12,768.00
2007,07,01,13,13,898.00
2007,07,01,13,14,958.80
2007,07,01,13,15,945.80
2007,07,01,13,16,945.60
2007,07,01,13,17,967.00
2007,07,01,13,18,985.80
2007,07,01,13,19,928.70
2007,07,01,13,20,925.00
2007,07,01,13,21,925.00
2007,07,01,13,22,925.00
2007,07,01,13,23,925.00
2007,07,01,13,24,925.00
2007,07,01,13,25,925.00
2007,07,01,13,26,925.00
2007,07,01,13,27,882.10
2007,07,01,13,28,679.20
2007,07,01,13,29,635.60
2007,07,01,13,30,650.00
2007,07,01,13,31,686.60
2007,07,01,13,32,772.00
2007,07,01,13,33,866.00
2007,07,01,13,34,952.10
2007,07,01,13,35,975.40
2007,07,01,13,36,943.20
2007,07,01,13,37,962.80
2007,07,01,13,38,984.00
2007,07,01,13,39,957.20
2007,07,01,13,40,937.00
2007,07,01,13,41,870.20
2007,07,01,13,42,846.90
2007,07,01,13,43,823.00
2007,07,01,13,44,875.00
2007,07,01,13,45,876.80
2007,07,01,13,46,896.00
2007,07,01,13,47,889.00
2007,07,01,13,48,866.80
2007,07,01,13,49,814.10
2007,07,01,13,50,772.40
2007,07,01,13,51,774.00
2007,07,01,13,52,748.60
2007,07,01,13,53,752.30
2007,07,01,13,54,703.00
2007,07,01,13,55,593.20
2007,07,01,13,56,452.00
2007,07,01,13,57,452.00
2007,07,01,13,58,641.60
2007,07,01,13,59,801.50
2007,07,01,14,00,813.80
2007,07,01,14,01,811.50
2007,07,01,14,02,792.10
2007,07,01,14,03,778.40
2007,07,01,14,04,735.00
2007,07,01,14,05,704.60
2007,07,01,14,06,772.00
2007,07,01,14,07,807.00
2007,07,01,14,08,805.00
2007,07,01,14,09,779.00
2007,07,01,14,10,747.00
2007,07,01,14,11,715.30
2007,07,01,14,12,645.00
2007,07,01,14,13,608.40
2007,07,01,14,14,436.50
2007,07,01,14,15,390.10
2007,07,01,14,16,384.40
2007,07,01,14,17,415.40
2007,07,01,14,18,436.00
2007,07,01,14,19,525.50
2007,07,01,14,20,653.80
2007,07,01,14,21,674.00
2007,07,01,14,22,629.20
2007,07,01,14,23,600.50
2007,07,01,14,24,605.60
2007,07,01,14,25,659.10
2007,07,01,14,26,682.20
2007,07,01,14,27,721.10
2007,07,01,14,28,658.50
2007,07,01,14,29,608.00
2007,07,01,14,30,608.00
2007,07,01,14,31,396.00
2007,07,01,14,32,404.00
2007,07,01,14,33,481.80
2007,07,01,14,34,512.80
2007,07,01,14,35,588.90
2007,07,01,14,36,636.90
2007,07,01,14,37,689.80
2007,07,01,14,38,717.90
2007,07,01,14,39,734.60
2007,07,01,14,40,748.00
2007,07,01,14,41,754.50
2007,07,01,14,42,705.00
2007,07,01,14,43,705.00
2007,07,01,14,44,697.50
2007,07,01,14,45,715.50
2007,07,01,14,46,712.50
2007,07,01,14,47,652.50
2007,07,01,14,48,624.40
2007,07,01,14,49,663.40
2007,07,01,14,50,676.50
2007,07,01,14,51,677.00
2007,07,01,14,52,670.00
2007,07,01,14,53,598.00
2007,07,01,14,54,661.00
2007,07,01,14,55,649.00
2007,07,01,14,56,608.20
2007,07,01,14,57,686.00
2007,07,01,14,58,653.50
2007,07,01,14,59,616.70
2007,07,01,15,00,624.80
2007,07,01,15,01,604.50
2007,07,01,15,02,566.60
2007,07,01,15,03,609.20
2007,07,01,15,04,662.10
2007,07,01,15,05,694.80
2007,07,01,15,06,692.00
2007,07,01,15,07,685.70
2007,07,01,15,08,676.40
2007,07,01,15,09,670.00
2007,07,01,15,10,498.20
2007,07,01,15,11,427.00
2007,07,01,15,12,412.60
2007,07,01,15,13,402.10
2007,07,01,15,14,412.20
2007,07,01,15,15,404.00
2007,07,01,15,16,410.00
2007,07,01,15,17,413.00
2007,07,01,15,18,429.00
2007,07,01,15,19,442.20
2007,07,01,15,20,640.00
2007,07,01,15,21,625.90
2007,07,01,15,22,499.00
2007,07,01,15,23,535.50
2007,07,01,15,24,636.80
2007,07,01,15,25,600.50
2007,07,01,15,26,568.90
2007,07,01,15,27,556.40
2007,07,01,15,28,551.00
2007,07,01,15,29,554.00
2007,07,01,15,30,540.90
2007,07,01,15,31,517.40
2007,07,01,15,32,464.70
2007,07,01,15,33,442.00
2007,07,01,15,34,452.40
2007,07,01,15,35,479.50
2007,07,01,15,36,455.20
2007,07,01,15,37,431.90
2007,07,01,15,38,427.00
2007,07,01,15,39,439.00
2007,07,01,15,40,425.00
2007,07,01,15,41,415.50
2007,07,01,15,42,407.80
2007,07,01,15,43,404.20
2007,07,01,15,44,407.40
2007,07,01,15,45,420.90
2007,07,01,15,46,438.20
2007,07,01,15,47,439.00
2007,07,01,15,48,436.00
2007,07,01,15,49,431.00
2007,07,01,15,50,431.00
2007,07,01,15,51,429.40
2007,07,01,15,52,427.00
2007,07,01,15,53,427.00
2007,07,01,15,54,425.80
2007,07,01,15,55,422.90
2007,07,01,15,56,418.20
2007,07,01,15,57,412.10
2007,07,01,15,58,404.90
2007,07,01,15,59,394.60
2007,07,01,16,00,390.20
2007,07,01,16,01,387.00
2007,07,01,16,02,383.00
2007,07,01,16,03,380.00
2007,07,01,16,04,378.00
2007,07,01,16,05,377.90
2007,07,01,16,06,375.80
2007,07,01,16,07,372.20
2007,07,01,16,08,366.40
2007,07,01,16,09,364.50
2007,07,01,16,10,365.40
2007,07,01,16,11,361.20
2007,07,01,16,12,351.20
2007,07,01,16,13,340.20
2007,07,01,16,14,328.00
2007,07,01,16,15,314.70
2007,07,01,16,16,301.50
2007,07,01,16,17,292.50
2007,07,01,16,18,288.60
2007,07,01,16,19,291.00
2007,07,01,16,20,296.50
2007,07,01,16,21,305.10
2007,07,01,16,22,312.10
2007,07,01,16,23,319.60
2007,07,01,16,24,329.00
2007,07,01,16,25,341.00
2007,07,01,16,26,355.00
2007,07,01,16,27,369.00
2007,07,01,16,28,374.00
2007,07,01,16,29,380.10
2007,07,01,16,30,378.50
2007,07,01,16,31,357.20
2007,07,01,16,32,345.90
2007,07,01,16,33,336.40
2007,07,01,16,34,331.20
2007,07,01,16,35,329.20
2007,07,01,16,36,321.70
2007,07,01,16,37,318.00
2007,07,01,16,38,314.10
2007,07,01,16,39,310.80
2007,07,01,16,40,307.10
2007,07,01,16,41,303.20
2007,07,01,16,42,299.80
2007,07,01,16,43,295.80
2007,07,01,16,44,294.10
2007,07,01,16,45,292.20
2007,07,01,16,46,290.10
2007,07,01,16,47,287.00
2007,07,01,16,48,283.00
2007,07,01,16,49,281.00
2007,07,01,16,50,279.00
2007,07,01,16,51,277.40
2007,07,01,16,52,300.00
2007,07,01,16,53,316.80
2007,07,01,16,54,332.00
2007,07,01,16,55,338.80
2007,07,01,16,56,332.80
2007,07,01,16,57,371.00
2007,07,01,16,58,350.00
2007,07,01,16,59,309.30
2007,07,01,17,00,295.00
2007,07,01,17,01,281.60
2007,07,01,17,02,277.70
2007,07,01,17,03,268.40
2007,07,01,17,04,251.00
2007,07,01,17,05,238.50
2007,07,01,17,06,231.10
2007,07,01,17,07,230.00
2007,07,01,17,08,230.00
2007,07,01,17,09,235.60